Theta_e
329 329 326 329 333 332 333 329 327 330 332 330 331 334 336 335 337 342 338 339 339 340 342 340 339 338 335 334 331 332 333 333 332 333 332 332 332 332 330 328 328 329 329 328 328 327 326 326 326
329 328 328 329 334 331 333 329 329 328 334 335 335 337 336 337 337 339 339 338 339 340 341 342 338 335 334 332 329 332 333 333 331 332 331 331 330 330 328 329 328 329 328 328 328 328 327 328 326
329 326 332 332 332 332 331 330 328 331 336 331 334 336 336 335 336 338 338 339 339 340 341 342 336 335 334 332 329 330 330 331 330 329 330 330 330 329 329 328 328 329 329 327 328 327 327 326 326
329 331 328 334 334 330 331 328 328 332 330 328 332 332 335 336 336 338 338 339 339 340 340 339 337 337 334 332 328 328 328 330 333 331 330 330 329 329 327 328 327 328 328 328 327 328 325 322 322
330 331 334 334 332 329 327 327 329 330 330 331 333 329 333 336 336 338 338 339 340 341 341 339 337 335 334 331 328 327 329 331 331 330 330 328 329 328 328 328 327 328 328 327 326 325 322 322 322
333 332 334 335 333 330 330 329 330 328 327 329 331 330 333 336 338 338 339 339 339 340 341 341 337 335 334 331 328 327 328 331 330 328 331 329 327 328 328 328 328 327 327 326 326 324 323 322 322
335 334 335 334 333 332 331 330 329 329 328 328 329 330 334 335 337 338 339 339 339 339 341 341 338 336 334 331 329 327 325 329 329 328 329 330 327 326 326 327 327 327 327 326 327 323 322 322 322
332 334 337 335 333 332 329 330 328 330 329 327 330 330 332 335 337 338 339 339 338 337 338 340 339 338 336 334 330 328 326 325 329 328 327 327 327 326 324 324 326 326 326 326 325 321 321 321 321
327 335 337 336 334 332 327 331 325 325 329 327 329 327 331 335 337 338 338 338 338 338 340 340 339 338 337 336 333 329 327 324 326 328 327 327 327 327 326 324 324 325 325 325 324 320 318 318 319
327 329 333 332 332 333 329 328 328 329 330 330 330 330 332 335 338 338 337 337 337 336 337 337 338 337 337 335 334 333 332 329 327 328 328 327 327 326 326 325 322 321 323 323 323 321 319 317 321
327 323 329 331 330 329 331 329 326 328 330 330 330 330 333 336 337 338 338 337 336 337 336 334 337 340 337 336 335 333 332 331 329 328 328 327 326 325 324 325 323 324 323 324 323 324 323 323 322
325 326 327 329 329 329 331 330 331 328 330 325 326 327 332 334 336 337 337 337 337 337 336 335 335 336 338 336 335 334 333 332 330 329 327 327 326 325 324 324 324 324 324 324 324 323 323 322 321
328 324 327 327 327 327 327 330 331 330 329 324 326 326 329 331 333 334 335 336 336 337 337 336 335 338 337 338 336 335 333 332 331 330 328 326 326 325 324 323 323 322 322 322 323 323 323 323 322
323 325 326 327 328 327 328 326 328 328 328 328 327 327 328 329 330 332 333 334 334 335 336 336 336 334 336 337 334 333 333 332 332 331 329 327 326 326 325 323 322 322 321 321 322 322 321 321 320
322 322 325 326 326 326 325 325 326 323 324 326 328 329 329 328 328 330 331 332 332 333 333 334 335 336 336 336 335 333 332 331 331 330 331 329 327 326 325 324 323 322 321 322 322 323 322 322 320
321 321 319 319 323 324 323 321 320 320 323 323 322 322 324 324 326 326 325 326 328 330 331 331 332 334 335 336 336 335 334 331 331 331 330 330 328 326 326 325 324 323 323 323 323 323 323 322 320
322 314 320 315 321 320 324 319 318 319 322 322 322 322 322 323 323 322 322 322 321 323 324 326 329 331 333 334 335 335 334 334 333 330 330 330 329 328 327 326 325 325 324 324 324 323 323 323 322
316 315 316 316 317 322 321 321 319 320 320 321 321 321 322 322 321 321 320 319 318 317 320 323 326 328 330 332 333 334 334 333 333 333 330 329 330 329 328 327 327 326 325 324 324 324 324 323 323
310 315 313 315 316 321 319 319 318 318 320 320 320 320 320 320 318 318 318 317 316 315 317 319 321 325 328 330 332 332 332 332 332 332 331 330 330 330 329 329 328 327 326 325 325 324 324 324 324
312 312 313 316 317 319 316 317 316 317 317 318 318 318 318 317 317 317 317 316 315 316 316 317 319 322 327 328 330 330 331 331 331 331 331 331 331 330 329 329 329 328 327 327 326 325 325 324 325
316 314 312 310 317 318 319 315 315 315 316 316 316 316 316 316 316 316 314 315 316 316 316 316 318 321 323 326 327 329 330 330 330 331 331 330 329 329 329 329 329 329 327 327 327 326 325 325 325
312 314 315 314 313 310 313 307 309 310 312 315 316 316 316 316 315 315 315 316 315 314 315 315 315 316 319 323 327 328 328 329 330 330 330 329 328 328 328 328 328 328 328 327 327 327 326 325 326
311 314 316 315 315 314 312 314 308 313 311 313 315 317 317 317 316 316 313 312 311 312 316 318 317 316 318 323 326 328 329 329 330 330 329 328 328 328 328 327 327 327 327 326 326 326 324 324 324
314 317 318 318 317 318 311 312 310 309 310 312 316 316 316 315 314 312 308 309 311 313 320 324 324 325 325 325 327 328 329 329 330 329 329 329 328 327 327 326 326 326 326 326 326 325 324 324 323
315 316 317 319 319 317 309 312 310 310 311 311 312 314 314 314 312 309 309 308 307 307 310 311 315 313 321 326 328 329 329 330 329 329 329 329 329 328 328 326 326 326 325 325 325 324 324 324 322
316 314 312 312 314 312 313 313 311 312 311 311 312 313 313 312 309 307 305 304 303 302 304 305 305 306 305 309 313 319 323 323 323 324 326 325 325 325 326 326 326 327 326 326 326 325 324 324 323
315 315 310 308 310 315 310 312 311 312 313 312 315 312 313 309 306 304 302 300 299 298 298 299 299 299 300 300 300 301 302 303 302 304 305 304 303 304 305 309 312 320 324 324 325 324 324 322 323
314 313 315 314 312 312 309 310 311 314 314 313 314 315 312 306 304 302 300 298 296 296 295 294 295 295 296 296 297 297 297 297 298 298 298 298 298 298 298 299 300 303 306 315 322 324 324 324 323
313 316 314 313 313 311 309 308 308 309 312 314 314 314 310 305 303 300 297 296 295 294 293 292 292 292 292 293 294 294 295 294 294 294 294 294 295 295 295 296 297 298 300 301 304 308 316 320 321
314 315 315 315 315 313 311 310 310 311 311 312 313 312 306 303 300 298 295 294 294 293 291 290 289 289 289 290 291 291 292 292 291 290 290 290 291 292 292 293 294 295 296 298 299 301 303 306 311
Wind_Speed
25 15 5 3 3 1 4 4 1 4 3 1 1 2 2 4 4 3 3 11 14 17 16 16 16 13 11 10 11 13 11 10 9 10 10 11 11 12 13 17 15 14 14 14 13 13 12 13 13
21 11 2 1 3 2 5 4 5 2 3 6 3 2 2 3 3 5 11 7 16 17 17 15 15 12 11 9 9 13 12 11 8 10 10 11 11 11 13 14 14 14 14 13 13 13 12 12 12
13 6 2 1 0 3 4 3 6 5 7 1 2 1 1 3 3 8 4 16 17 16 16 15 15 13 11 8 10 12 12 9 8 8 9 10 11 11 11 13 13 13 13 13 12 12 12 10 10
8 0 2 3 4 3 3 6 8 8 3 3 2 3 2 2 2 8 12 17 18 16 15 16 16 14 10 7 9 12 14 10 8 10 8 10 9 10 11 12 13 13 12 11 11 10 9 8 9
4 1 1 3 4 2 2 4 6 6 4 3 3 4 2 2 3 11 16 17 16 16 15 16 16 13 10 7 9 12 15 14 11 6 9 8 9 10 12 11 11 11 10 10 10 10 9 8 7
1 2 3 6 5 3 3 5 5 3 3 3 2 3 3 4 8 10 16 16 15 14 13 14 16 13 10 8 8 10 14 14 11 8 10 7 6 8 10 11 10 11 10 10 9 10 8 7 6
3 2 1 3 6 5 4 6 4 3 3 3 1 2 3 7 7 11 15 14 14 14 13 13 14 13 11 9 8 9 11 14 11 9 7 8 5 4 9 10 9 9 9 9 9 9 9 7 6
2 2 4 3 7 4 5 6 2 3 3 2 1 2 4 6 10 11 13 14 13 14 14 14 13 13 11 11 11 10 10 13 14 12 10 9 8 6 6 11 9 7 7 7 8 8 7 6 6
2 3 5 4 6 4 4 6 2 1 3 3 3 1 4 9 12 13 12 12 12 14 15 15 15 14 13 12 11 12 11 12 15 12 14 12 10 10 9 9 12 11 9 9 8 8 8 8 7
3 4 6 1 3 2 4 4 5 5 6 5 4 5 5 11 14 15 14 14 13 13 14 15 16 16 14 13 12 12 11 11 13 13 12 11 10 10 10 10 10 11 11 11 9 9 9 9 7
3 6 6 4 4 2 3 4 2 5 6 7 6 7 8 10 13 13 14 14 15 14 13 16 16 17 16 15 14 13 13 13 13 14 14 13 12 11 11 10 10 10 11 8 9 9 9 9 8
7 6 5 4 4 4 3 0 3 7 4 1 4 3 8 10 12 14 14 13 13 15 16 16 18 18 20 15 15 14 15 15 15 15 16 15 14 14 14 13 11 11 10 10 10 10 10 10 10
8 5 5 2 2 2 1 7 6 8 8 2 3 3 6 7 10 10 12 12 14 15 16 16 18 22 23 22 16 17 17 17 16 16 16 17 15 14 14 14 13 12 12 12 11 11 11 11 11
2 9 4 3 6 3 5 11 5 9 11 9 8 10 9 8 9 9 12 14 15 16 17 17 19 21 23 26 23 19 18 18 18 18 18 19 17 15 14 14 14 14 13 12 12 12 12 12 12
2 5 3 8 5 5 4 17 18 18 12 11 12 13 11 12 10 13 11 14 15 16 16 18 19 20 21 22 21 23 20 21 22 22 19 19 20 18 17 15 15 14 13 13 13 13 13 13 14
6 4 7 5 9 5 10 19 1 16 19 20 20 18 16 13 13 14 15 16 15 15 16 17 19 21 23 23 21 21 21 21 21 23 24 21 22 21 19 18 17 15 15 14 14 14 14 14 15
7 6 13 8 10 8 15 16 5 7 12 16 17 18 16 14 16 17 16 14 14 15 17 17 17 21 22 22 22 22 21 22 21 20 24 23 21 22 22 20 18 17 17 17 16 15 15 15 15
11 8 8 11 5 13 15 25 11 4 8 12 14 14 13 13 14 17 15 15 17 18 19 18 16 18 20 18 19 20 21 23 22 22 25 24 21 22 23 21 20 18 18 18 18 18 17 17 17
9 13 11 6 4 8 18 23 21 17 17 16 15 15 15 17 20 25 23 20 18 19 20 20 21 20 17 18 18 20 24 24 23 24 23 23 22 20 21 21 20 20 21 21 19 19 18 19 16
8 11 11 3 4 6 13 23 22 20 21 23 22 21 21 20 21 24 20 18 18 19 18 18 19 18 19 19 18 18 14 19 21 22 23 24 23 23 23 22 21 21 20 20 20 20 19 18 16
19 18 10 5 2 9 11 22 24 18 24 23 21 21 20 22 22 20 19 17 13 15 14 15 16 18 20 21 18 17 15 15 15 19 20 21 22 22 23 23 23 22 21 22 21 21 21 21 16
19 14 15 11 5 8 2 12 15 5 8 10 16 17 19 18 17 14 14 14 10 12 12 16 17 18 19 19 20 22 20 19 16 16 15 15 17 18 20 21 22 22 21 21 21 21 21 20 22
10 9 14 16 14 11 17 8 9 3 9 10 12 13 12 10 8 7 4 3 4 6 9 11 12 13 14 16 21 19 19 16 13 11 12 13 13 16 17 18 17 20 19 22 21 21 21 23 23
9 10 8 7 8 9 19 15 19 17 12 13 12 11 9 6 4 4 4 4 5 6 5 3 1 1 5 10 13 16 14 13 11 11 11 11 11 11 14 15 16 17 19 21 22 23 25 26 25
16 15 6 6 7 11 4 11 21 4 6 9 12 11 7 6 8 5 7 8 10 12 11 11 10 13 9 6 4 7 9 9 9 9 9 8 8 8 10 12 14 15 17 20 22 23 25 26 27
23 20 8 10 10 10 9 13 9 3 18 16 12 12 7 8 8 8 10 12 13 13 15 15 16 16 16 15 14 13 10 9 7 6 3 2 0 2 6 10 13 17 19 20 21 23 26 23 29
18 20 17 9 2 3 10 13 13 11 10 10 12 10 9 10 11 11 13 13 15 16 17 17 17 18 18 18 18 19 18 16 15 12 11 9 7 5 5 5 6 9 14 17 20 23 24 23 25
13 17 11 11 8 12 13 16 14 6 13 17 13 11 11 13 13 12 12 14 14 15 16 17 17 18 17 17 17 16 16 15 14 13 13 12 10 10 10 10 10 10 9 10 14 18 20 24 27
9 14 11 9 11 8 9 12 17 19 15 12 14 14 15 16 14 12 13 12 13 14 14 15 15 15 16 16 15 15 15 14 13 13 12 12 11 12 12 12 13 12 12 12 13 14 16 21 23
24 22 25 9 15 16 14 15 6 2 8 12 7 12 15 15 14 12 14 12 11 11 12 12 13 14 13 12 13 14 13 14 14 14 14 14 14 14 14 14 14 14 13 14 14 15 15 17 20
Wind_Direction
344 344 344 257 242 196 100 119 118 169 183 59 84 278 2 12 356 32 136 155 152 155 159 162 163 158 160 158 153 144 138 131 126 123 124 133 136 132 126 136 127 124 119 113 106 109 112 99 97
343 346 335 342 266 163 89 119 166 146 95 110 125 146 201 73 63 104 135 170 159 157 160 165 167 163 157 153 152 148 140 145 142 129 131 136 139 137 135 136 137 132 129 120 112 109 111 111 102
342 354 289 49 301 103 102 126 121 132 148 153 177 321 28 65 106 155 140 156 157 160 163 169 172 167 157 152 154 154 151 145 145 139 137 141 142 144 144 144 145 139 138 133 123 121 115 118 114
344 264 127 235 152 82 72 123 129 141 202 245 280 129 141 26 114 157 151 156 158 164 168 177 175 174 164 163 164 161 156 155 174 152 154 148 150 154 157 153 155 152 149 143 138 129 131 130 127
354 274 161 161 135 110 136 134 150 151 152 172 213 105 90 115 132 148 157 162 166 167 169 174 180 182 181 184 176 171 170 165 168 176 179 164 161 162 163 165 162 162 159 155 152 157 137 127 132
316 301 211 180 152 132 141 155 163 163 144 133 186 140 90 134 152 154 162 166 171 172 173 175 185 190 192 192 186 181 178 175 168 177 194 179 179 174 172 175 170 171 169 167 165 168 160 143 130
9 308 121 161 149 161 140 165 187 154 166 147 124 132 100 176 170 161 165 168 172 178 180 181 185 195 199 199 198 191 189 188 174 186 199 188 200 200 190 184 187 184 179 178 181 180 178 175 166
341 274 164 176 180 163 142 180 143 203 139 89 225 114 123 151 158 160 168 172 180 185 187 189 191 194 197 201 203 201 189 199 193 189 201 212 218 214 206 200 198 200 203 203 211 201 201 203 202
294 227 203 179 186 148 157 196 135 137 184 191 169 30 90 142 153 157 170 183 193 193 194 194 195 199 202 204 208 207 205 195 207 209 206 212 205 209 214 205 214 207 214 225 231 223 222 227 233
230 227 208 153 190 194 177 219 172 193 186 206 184 154 136 159 173 173 185 193 204 205 204 203 203 203 204 208 210 208 211 208 207 206 205 210 213 210 207 222 224 215 220 231 242 237 237 242 248
172 228 188 204 208 228 195 216 208 213 214 219 212 170 162 172 189 196 207 208 212 211 213 214 213 211 209 212 210 211 215 212 214 213 211 215 216 223 225 228 228 227 232 228 235 239 236 240 246
211 231 200 175 188 173 208 282 231 232 238 10 229 167 174 187 198 206 214 217 215 212 216 217 219 220 219 217 218 221 218 217 217 217 215 216 219 223 224 227 229 228 227 229 231 233 235 244 249
223 218 208 156 165 237 192 232 249 248 248 222 185 216 213 213 219 219 223 224 225 223 222 221 221 221 228 224 225 225 225 225 226 223 221 219 222 224 224 228 229 231 230 230 233 236 242 248 251
215 216 225 259 222 243 244 251 211 237 246 236 230 236 230 236 236 229 224 228 227 232 233 227 225 227 229 230 227 227 227 230 229 227 226 224 225 226 227 231 233 235 233 234 236 240 245 249 250
178 194 255 234 219 226 220 257 235 239 232 241 236 243 244 239 237 242 246 246 241 238 239 234 231 229 227 228 227 230 231 230 231 231 230 228 229 229 228 230 232 234 234 237 244 249 252 255 255
203 224 225 198 203 222 201 250 276 229 233 238 242 246 251 252 242 248 255 261 258 249 240 240 233 231 230 230 229 231 229 230 235 237 237 231 231 231 230 232 234 234 231 235 239 245 252 258 262
197 222 224 257 218 210 212 265 247 219 227 243 244 247 251 256 255 256 248 243 258 263 255 245 235 233 234 233 231 233 234 233 233 233 241 239 232 232 232 235 235 232 234 237 242 247 248 257 265
197 212 214 221 194 221 233 253 243 236 236 241 253 249 244 245 250 251 247 253 266 266 260 248 241 237 236 235 233 234 235 235 234 233 237 240 235 233 232 237 239 236 238 239 240 242 244 249 257
223 215 219 210 200 224 240 257 257 249 246 249 247 248 254 256 258 260 265 266 265 264 254 250 248 239 229 225 224 229 227 229 231 232 234 234 235 234 235 239 242 240 242 243 241 242 245 250 254
210 218 226 234 223 226 259 262 264 258 251 247 248 250 255 263 264 260 259 258 267 265 257 251 247 238 228 225 225 228 230 237 238 237 236 234 232 233 233 236 240 240 243 246 244 242 245 250 240
225 229 214 236 154 235 283 272 256 250 249 246 250 254 255 252 258 266 265 263 264 265 264 257 248 241 235 233 229 227 230 236 230 232 235 235 233 235 235 239 240 241 239 247 247 243 240 248 250
226 223 229 219 233 254 187 282 263 192 223 227 235 241 241 245 251 266 267 268 269 272 267 260 254 249 245 235 226 219 219 228 233 232 233 230 232 236 239 242 242 246 243 244 250 249 245 245 254
238 181 202 212 231 267 241 267 257 192 241 221 224 224 227 238 241 256 260 295 314 305 289 270 257 253 240 229 223 224 231 240 240 235 227 223 234 241 240 242 240 241 244 248 249 248 242 239 243
144 135 149 197 223 244 234 226 261 242 234 219 205 222 216 216 222 147 100 61 36 21 28 30 61 307 232 217 219 223 230 236 236 236 235 235 234 239 244 242 242 243 243 251 253 255 252 247 245
183 167 172 205 210 240 208 217 248 291 325 241 226 228 216 180 157 136 99 72 54 47 51 60 71 63 77 128 176 220 233 237 242 254 248 254 242 245 256 251 252 252 255 258 263 262 259 259 248
200 191 191 213 223 250 164 233 241 218 220 233 222 239 179 168 140 120 98 87 80 67 64 65 66 68 69 84 83 92 110 109 108 93 144 96 43 304 285 275 279 274 273 273 270 265 264 259 256
201 212 220 269 84 259 223 250 283 237 243 234 230 226 226 153 133 122 109 99 88 79 72 71 70 68 65 66 68 75 81 83 75 77 80 72 54 25 346 328 332 312 288 276 276 270 268 258 258
195 195 196 218 224 231 247 251 252 199 225 229 226 214 167 146 141 127 114 102 91 83 77 73 69 64 60 61 61 61 58 56 56 54 47 38 28 19 10 4 355 347 330 305 289 273 268 269 262
182 194 217 223 229 229 253 244 242 242 233 218 226 215 169 156 144 132 118 106 97 86 76 70 63 60 55 52 51 51 46 43 40 37 27 18 8 3 359 353 347 342 335 330 317 303 292 281 273
204 203 194 192 206 226 244 252 132 168 244 250 232 165 158 151 147 139 127 116 100 89 76 66 60 55 48 47 47 44 40 31 21 12 7 360 353 350 348 343 338 333 329 322 316 310 300 291 283